This is the latest recevied weather packets stored in our database for station/object KB4MLW-13. If no packets are shown the sender has not sent any weather packets the latest 10 day(s).
| Time | Temp. | Humidity | Pressure | Rain* | Wind** | Luminosity | Snow |
|---|---|---|---|---|---|---|---|
| 1788207388 | 33.89° C | 56% | 1001.4 hPa | 0 mm | - | - | - |
| 1788207328 | 33.89° C | 56% | 1001.4 hPa | 0 mm | - | - | - |
| 1788207268 | 33.89° C | 56% | 1001.5 hPa | 0 mm | - | - | - |
| 1788207208 | 33.89° C | 57% | 1001.3 hPa | 0 mm | - | - | - |
| 1788207119 | 33.89° C | 56% | 1001.6 hPa | 0 mm | - | - | - |
| 1788207058 | 33.89° C | 56% | 1001.4 hPa | 0 mm | - | - | - |
| 1788206998 | 33.89° C | 57% | 1001.5 hPa | 0 mm | - | - | - |
| 1788206938 | 33.89° C | 55% | 1001.4 hPa | 0 mm | - | - | - |
| 1788206878 | 33.89° C | 57% | 1001.7 hPa | 0 mm | - | - | - |
| 1788206818 | 33.89° C | 58% | 1001.4 hPa | 0 mm | - | - | - |
| 1788206758 | 33.89° C | 56% | 1001.6 hPa | 0 mm | - | - | - |
| 1788206698 | 33.89° C | 55% | 1001.4 hPa | 0 mm | - | - | - |
| 1788206609 | 33.33° C | 58% | 1001.5 hPa | 0 mm | - | - | - |
| 1788206548 | 33.33° C | 58% | 1001.8 hPa | 0 mm | - | - | - |
| 1788206459 | 33.33° C | 59% | 1001.7 hPa | 0 mm | - | - | - |
| 1788206398 | 33.33° C | 59% | 1001.6 hPa | 0 mm | - | - | - |
| 1788206338 | 33.33° C | 57% | 1001.5 hPa | 0 mm | - | - | - |
| 1788206278 | 33.33° C | 55% | 1001.8 hPa | 0 mm | - | - | - |
| 1788206218 | 33.33° C | 57% | 1001.8 hPa | 0 mm | - | - | - |
| 1788206158 | 33.33° C | 59% | 1001.8 hPa | 0 mm | - | - | - |
| 1788206098 | 33.33° C | 60% | 1001.7 hPa | 0 mm | - | - | - |
| 1788206038 | 33.89° C | 59% | 1001.8 hPa | 0 mm | - | - | - |
| 1788205949 | 33.33° C | 61% | 1001.7 hPa | 0 mm | - | - | - |
| 1788205859 | 32.78° C | 60% | 1001.9 hPa | 0 mm | - | - | - |
| 1788205798 | 32.78° C | 60% | 1001.7 hPa | 0 mm | - | - | - |
* Rain latest hour (hover to see other rain measurements)
** Current wind speed in m/s (hover to see current wind gust speed)